Regional Weather Roundup
Issued by NWS

Home | Current Version | Previous Version | Graphics & Text | Print | Product List | Glossary On
Versions: 1 2 3 4 5 6 7 8 9 10 11 12 13 14 15 16 17 18 19 20 21 22 23 24 25 26 27 28 29 30 31 32 33 34 35 36 37 38 39 40 41 42 43 44 45 46 47 48 49 50
000
ASUS43 KLSX 311207
RWRMO

WEATHER SUMMARY FOR MISSOURI
NATIONAL WEATHER SERVICE SPRINGFIELD MO
700 AM CDT FRI JUL 31 2015

NOTE: "FAIR" INDICATES FEW OR NO CLOUDS BELOW 12,000 FEET WITH NO
       SIGNIFICANT WEATHER AND/OR OBSTRUCTIONS TO VISIBILITY.
       CURRENT SKY AND/OR WEATHER CONDITIONS ARE NOT AVAILABLE FOR
       CHILLICOTHE AND FARMINGTON.

MOZ001>031-035>038-043-044-053-054-311300-
...NORTHERN AND WESTERN MISSOURI...

CITY           SKY/WX    TMP DP  RH WIND       PRES   REMARKS
KANSAS CTY INT PTCLDY    64  60  87 SW5       30.17R
6HR MIN TEMP:  62; 6HR MAX TEMP:  72;

KANSAS C DTWN  CLEAR     68  65  90 CALM      30.17R
6HR MIN TEMP:  66; 6HR MAX TEMP:  72;

LEE`S SUMMIT   CLEAR     65  60  84 SW3       30.18R
6HR MIN TEMP:  63; 6HR MAX TEMP:  73;

ST JOSEPH      PTCLDY    64  63  96 S3        30.17S
6HR MIN TEMP:  63; 6HR MAX TEMP:  69;

CHILLICOTHE      N/A     69  66  90 VRB3      30.17S
6HR MIN TEMP:  66; 6HR MAX TEMP:  69;

KIRKSVILLE     CLOUDY    70  63  78 W5        30.15S
6HR MIN TEMP:  65; 6HR MAX TEMP:  72;


$$
MOZ066>068-077>081-088>096-101>105-311300-
...SOUTHWEST MISSOURI...

CITY           SKY/WX    TMP DP  RH WIND       PRES   REMARKS
SPRINGFIELD    PTCLDY    70  65  84 CALM      30.18R
6HR MIN TEMP:  68; 6HR MAX TEMP:  73;

JOPLIN         MOCLDY    69  65  86 CALM      30.18R
6HR MIN TEMP:  69; 6HR MAX TEMP:  73;


$$
MOZ032>034-039>042-045>050-055>058-069>072-311300-
...CENTRAL MISSOURI...

CITY           SKY/WX    TMP DP  RH WIND       PRES   REMARKS
COLUMBIA       CLEAR     69  64  84 W7        30.17R
6HR MIN TEMP:  68; 6HR MAX TEMP:  72;

JEFFERSON CITY PTCLDY    64  64 100 CALM      30.16R
6HR MIN TEMP:  63; 6HR MAX TEMP:  69;

ROLLA          CLEAR     63  62  97 SW3       30.16S
6HR MIN TEMP:  61; 6HR MAX TEMP:  68;

SEDALIA        CLEAR     69  60  73 SW5       30.18R
6HR MIN TEMP:  65; 6HR MAX TEMP:  73;

WHITEMAN AFB   CLEAR     64  62  93 CALM      30.16R
WARRENSBURG    CLEAR     61  61 100 CALM      30.17S
OSAGE BEACH    PTCLDY    61  57  88 CALM      30.18R

$$
MOZ051-052-059>065-311300-
...EAST CENTRAL MISSOURI...

CITY           SKY/WX    TMP DP  RH WIND       PRES   REMARKS
ST LOUIS INTL  PTCLDY    73  65  75 W3        30.14R
6HR MIN TEMP:  71; 6HR MAX TEMP:  75;

SPIRIT OF STL  CLEAR     68  67  96 CALM      30.13R
6HR MIN TEMP:  65; 6HR MAX TEMP:  71;

ST CHARLES     CLEAR     69  66  90 SW5       30.12R
6HR MIN TEMP:  66; 6HR MAX TEMP:  72;


$$
MOZ072>076-082>087-097>100-106>115-311300-
...SOUTH CENTRAL AND SOUTHEAST MISSOURI...

CITY           SKY/WX    TMP DP  RH WIND       PRES   REMARKS
CAPE GIRARDEAU SUNNY     67  66  97 CALM      30.12R
6HR MIN TEMP:  64; 6HR MAX TEMP:  68;

FARMINGTON     CLEAR     64  63  94 CALM      30.20R
6HR MIN TEMP:  63; 6HR MAX TEMP:  66;

POPLAR BLUFF   CLEAR     68  63  84 N3        30.11S
6HR MIN TEMP:  66; 6HR MAX TEMP:  69;

WEST PLAINS    CLEAR     65  61  87 CALM      30.19R
6HR MIN TEMP:  62; 6HR MAX TEMP:  68;


$$


USA.gov is the U.S. government's official web portal to all federal, state and local government web resources and services.